10-03-2023, 00:00:04,    350,    0.0,    4.4,   0.00,   0.00,  982.4,    0.0, -999.0
10-03-2023, 00:00:14,    350,    0.0,    4.3,   0.00,   0.00,  982.4,    0.0, -999.0
10-03-2023, 00:00:24,    350,    0.0,    4.4,   0.00,   0.00,  982.4,    0.0, -999.0
10-03-2023, 00:00:34,    350,    0.3,    4.4,   0.00,   0.01,  982.5,    0.1, -999.0
10-03-2023, 00:00:44,    350,    0.1,    4.3,   0.00,   0.00,  982.4,    0.1, -999.0
10-03-2023, 00:00:54,    350,    0.0,    4.3,   0.00,   0.00,  982.4,    0.0, -999.0
10-03-2023, 00:01:04,    350,    0.0,    4.3,   0.00,   0.00,  982.4,    0.1, -999.0
10-03-2023, 00:01:14,    350,    0.2,    4.3,   0.00,   0.00,  982.4,    0.0, -999.0
10-03-2023, 00:01:24,    350,    0.3,    4.3,   0.00,   0.00,  982.4,    0.0, -999.0
10-03-2023, 00:01:33,    350,    0.0,    4.3,   0.00,   0.01,  982.4,    0.0, -999.0
10-03-2023, 00:01:44,    350,    0.0,    4.3,   0.00,   0.00,  982.4,    0.1, -999.0
10-03-2023, 00:01:54,    350,    0.0,    4.1,   0.00,   0.00,  982.4,    0.0, -999.0
10-03-2023, 00:02:04,    350,    0.0,    4.3,   0.00,   0.01,  982.3,    0.0, -999.0
10-03-2023, 00:02:13,    350,    0.0,    4.2,   0.00,   0.00,  982.3,    0.0, -999.0
10-03-2023, 00:02:24,    348,    0.0,    4.3,   0.00,   0.01,  982.4,    0.0, -999.0
10-03-2023, 00:02:34,    350,    0.0,    4.3,   0.00,   0.00,  982.3,    0.0, -999.0
10-03-2023, 00:02:43,    350,    0.0,    4.2,   0.00,   0.01,  982.4,    0.0, -999.0
10-03-2023, 00:02:53,    350,    0.0,    4.3,   0.00,   0.01,  982.4,    0.0, -999.0
10-03-2023, 00:03:04,    350,    0.0,    4.3,   0.00,   0.00,  982.4,    0.0, -999.0
10-03-2023, 00:03:13,    350,    0.0,    4.3,   0.00,   0.01,  982.3,    0.1, -999.0
10-03-2023, 00:03:23,    350,    0.0,    4.3,   0.00,   0.00,  982.3,    0.0, -999.0
10-03-2023, 00:03:33,    350,    0.0,    4.3,   0.00,   0.00,  982.4,    0.0, -999.0
10-03-2023, 00:03:44,    350,    0.0,    4.2,   0.00,   0.01,  982.3,    0.1, -999.0
10-03-2023, 00:03:53,    350,    0.0,    4.2,   0.00,   0.00,  982.4,    0.0, -999.0
10-03-2023, 00:04:03,    349,    0.0,    4.2,   0.00,   0.01,  982.4,    0.1, -999.0
10-03-2023, 00:04:13,    350,    0.1,    4.2,   0.00,   0.00,  982.4,    0.0, -999.0
10-03-2023, 00:04:23,    350,    0.1,    4.3,   0.00,   0.01,  982.4,    0.0, -999.0
10-03-2023, 00:04:33,    349,    0.0,    4.2,   0.00,   0.00,  982.3,    0.0, -999.0
10-03-2023, 00:04:43,    349,    0.0,    4.2,   0.00,   0.00,  982.3,    0.0, -999.0
10-03-2023, 00:04:55,    349,    0.0,    4.1,   0.00,   0.01,  982.3,    0.0, -999.0
10-03-2023, 00:05:03,    350,    0.0,    4.2,   0.00,   0.00,  982.3,    0.0, -999.0
10-03-2023, 00:05:13,    349,    0.0,    4.1,   0.00,   0.00,  982.3,    0.0, -999.0
10-03-2023, 00:05:23,    350,    0.0,    4.1,   0.00,   0.01,  982.3,    0.0, -999.0
10-03-2023, 00:05:33,    349,    0.0,    4.2,   0.00,   0.00,  982.3,    0.0, -999.0
10-03-2023, 00:05:43,    350,    0.0,    4.1,   0.00,   0.00,  982.3,    0.0, -999.0
10-03-2023, 00:05:53,    349,    0.0,    4.2,   0.00,   0.00,  982.3,    0.0, -999.0
10-03-2023, 00:06:03,    350,    0.0,    4.2,   0.00,   0.01,  982.3,    0.0, -999.0
10-03-2023, 00:06:13,    350,    0.0,    4.1,   0.00,   0.00,  982.3,    0.0, -999.0
10-03-2023, 00:06:23,    350,    0.0,    4.2,   0.00,   0.00,  982.3,    0.1, -999.0
10-03-2023, 00:06:33,    350,    0.2,    4.1,   0.00,   0.00,  982.3,    0.0, -999.0
10-03-2023, 00:06:43,     21,    0.7,    4.2,   0.00,   0.00,  982.4,    0.0, -999.0
10-03-2023, 00:06:53,    306,    0.1,    4.1,   0.00,   0.00,  982.4,    0.1, -999.0
10-03-2023, 00:07:03,    306,    0.0,    4.1,   0.00,   0.01,  982.3,    0.0, -999.0
10-03-2023, 00:07:13,    306,    0.0,    4.2,   0.00,   0.00,  982.4,    0.0, -999.0
10-03-2023, 00:07:23,    306,    0.0,    4.0,   0.00,   0.00,  982.4,    0.0, -999.0
10-03-2023, 00:07:33,    306,    0.0,    4.1,   0.00,   0.00,  982.3,    0.1, -999.0
10-03-2023, 00:07:43,    306,    0.0,    4.1,   0.00,   0.00,  982.4,    0.0, -999.0
10-03-2023, 00:07:53,    306,    0.0,    4.1,   0.00,   0.00,  982.4,    0.0, -999.0
10-03-2023, 00:08:03,    307,    0.0,    4.1,   0.00,   0.00,  982.3,    0.0, -999.0
10-03-2023, 00:08:13,    306,    0.0,    4.1,   0.00,   0.00,  982.4,    0.0, -999.0
10-03-2023, 00:08:23,    307,    0.0,    4.1,   0.00,   0.01,  982.4,    0.0, -999.0
10-03-2023, 00:08:33,    307,    0.0,    4.0,   0.00,   0.00,  982.3,    0.0, -999.0
10-03-2023, 00:08:43,    307,    0.0,    4.0,   0.00,   0.00,  982.3,    0.0, -999.0
10-03-2023, 00:08:53,    306,    0.0,    4.0,   0.00,   0.00,  982.3,    0.1, -999.0
10-03-2023, 00:09:03,    306,    0.0,    4.0,   0.00,   0.00,  982.3,    0.0, -999.0
10-03-2023, 00:09:13,    306,    0.0,    4.1,   0.00,   0.00,  982.4,    0.1, -999.0
10-03-2023, 00:09:23,    307,    0.0,    4.1,   0.00,   0.00,  982.3,    0.0, -999.0
10-03-2023, 00:09:33,    306,    0.0,    4.1,   0.00,   0.00,  982.3,    0.0, -999.0
10-03-2023, 00:09:43,    307,    0.0,    4.0,   0.00,   0.00,  982.4,    0.0, -999.0
10-03-2023, 00:09:53,    307,    0.0,    4.0,   0.00,   0.00,  982.3,    0.0, -999.0
10-03-2023, 00:10:02,      0,    0.0,    4.0,   0.00,   0.00,  982.4,    0.0, -999.0
10-03-2023, 00:10:13,     53,    0.1,    4.1,   0.00,   0.00,  982.4,    0.0, -999.0
10-03-2023, 00:10:23,     53,    0.0,    4.0,   0.00,   0.00,  982.3,    0.0, -999.0
10-03-2023, 00:10:33,     53,    0.0,    4.0,   0.00,   0.00,  982.3,    0.1, -999.0
10-03-2023, 00:10:42,     53,    0.0,    4.0,   0.00,   0.00,  982.3,    0.0, -999.0
10-03-2023, 00:10:53,     53,    0.0,    4.0,   0.00,   0.01,  982.4,    0.0, -999.0
10-03-2023, 00:11:03,     54,    0.0,    4.0,   0.00,   0.00,  982.3,    0.0, -999.0
10-03-2023, 00:11:12,     53,    0.0,    4.1,   0.00,   0.00,  982.3,    0.0, -999.0
10-03-2023, 00:11:22,     53,    0.0,    4.0,   0.00,   0.00,  982.3,    0.0, -999.0
10-03-2023, 00:11:33,     25,    0.5,    4.0,   0.00,   0.00,  982.4,    0.0, -999.0
10-03-2023, 00:11:43,     25,    0.0,    4.0,   0.00,   0.00,  982.3,    0.0, -999.0
10-03-2023, 00:11:52,     25,    0.0,    4.0,   0.00,   0.00,  982.3,    0.0, -999.0
10-03-2023, 00:12:02,      9,    0.3,    4.0,   0.00,   0.00,  982.5,    0.0, -999.0
10-03-2023, 00:12:13,      9,    0.0,    4.0,   0.00,   0.00,  982.4,    0.0, -999.0
10-03-2023, 00:12:22,      9,    0.0,    4.0,   0.00,   0.00,  982.3,    0.1, -999.0
10-03-2023, 00:12:32,      9,    0.0,    4.0,   0.00,   0.00,  982.3,    0.0, -999.0
10-03-2023, 00:12:43,      9,    0.0,    4.0,   0.00,   0.00,  982.3,    0.0, -999.0
10-03-2023, 00:12:52,      9,    0.0,    4.0,   0.00,   0.00,  982.3,    0.0, -999.0
10-03-2023, 00:13:02,     10,    0.0,    4.0,   0.00,   0.00,  982.3,    0.0, -999.0
10-03-2023, 00:13:12,     11,    0.0,    4.0,   0.00,   0.00,  982.3,    0.0, -999.0
10-03-2023, 00:13:23,      9,    0.0,    4.0,   0.00,   0.00,  982.3,    0.1, -999.0
10-03-2023, 00:13:32,      9,    0.0,    3.9,   0.00,   0.00,  982.3,    0.0, -999.0
10-03-2023, 00:13:42,      9,    0.0,    3.9,   0.00,   0.00,  982.3,    0.0, -999.0
10-03-2023, 00:13:52,      9,    0.0,    4.0,   0.00,   0.00,  982.3,    0.0, -999.0
10-03-2023, 00:14:02,     10,    0.0,    4.0,   0.00,   0.00,  982.3,    0.0, -999.0
10-03-2023, 00:14:12,     11,    0.4,    4.0,   0.00,   0.01,  982.4,    0.0, -999.0
10-03-2023, 00:14:22,     12,    0.2,    4.0,   0.00,   0.00,  982.4,    0.0, -999.0
10-03-2023, 00:14:32,     12,    0.0,    4.0,   0.00,   0.00,  982.3,    0.0, -999.0
10-03-2023, 00:14:42,     12,    0.0,    4.0,   0.00,   0.00,  982.3,    0.0, -999.0
10-03-2023, 00:14:52,     12,    0.0,    4.0,   0.00,   0.00,  982.3,    0.1, -999.0
10-03-2023, 00:15:02,     13,    0.1,    4.1,   0.00,   0.00,  982.3,    0.0, -999.0
10-03-2023, 00:15:12,     10,    0.1,    4.0,   0.00,   0.00,  982.4,    0.0, -999.0
10-03-2023, 00:15:22,      9,    0.0,    4.0,   0.00,   0.00,  982.3,    0.1, -999.0
10-03-2023, 00:15:32,      8,    0.1,    4.0,   0.00,   0.00,  982.4,    0.1, -999.0
10-03-2023, 00:15:42,     21,    0.0,    3.9,   0.00,   0.00,  982.3,    0.0, -999.0
10-03-2023, 00:15:52,     21,    0.2,    3.9,   0.00,   0.00,  982.3,    0.0, -999.0
10-03-2023, 00:16:02,     21,    0.0,    3.9,   0.00,   0.00,  982.3,    0.1, -999.0
10-03-2023, 00:16:12,     21,    0.0,    4.0,   0.00,   0.00,  982.3,    0.0, -999.0
10-03-2023, 00:16:22,     21,    0.0,    3.9,   0.00,   0.00,  982.3,    0.0, -999.0
10-03-2023, 00:16:32,     21,    0.0,    3.9,   0.00,   0.00,  982.3,    0.0, -999.0
10-03-2023, 00:16:42,     21,    0.0,    3.9,   0.00,   0.00,  982.3,    0.0, -999.0
10-03-2023, 00:16:52,     20,    0.0,    3.9,   0.00,   0.00,  982.3,    0.0, -999.0
10-03-2023, 00:17:02,     18,    0.0,    3.9,   0.00,   0.00,  982.4,    0.0, -999.0
10-03-2023, 00:17:12,     18,    0.0,    3.9,   0.00,   0.00,  982.3,    0.0, -999.0
10-03-2023, 00:17:22,     19,    0.1,    3.9,   0.00,   0.00,  982.3,    0.0, -999.0
10-03-2023, 00:17:32,     18,    0.0,    4.0,   0.00,   0.00,  982.3,    0.0, -999.0
10-03-2023, 00:17:42,      0,    0.1,    4.0,   0.00,   0.00,  982.3,    0.0, -999.0
10-03-2023, 00:17:52,      0,    0.0,    4.0,   0.00,   0.00,  982.3,    0.1, -999.0
10-03-2023, 00:18:02,      0,    0.0,    4.0,   0.00,   0.00,  982.3,    0.0, -999.0
10-03-2023, 00:18:12,      0,    0.0,    3.9,   0.00,   0.00,  982.3,    0.0, -999.0
10-03-2023, 00:18:22,      5,    0.0,    3.9,   0.00,   0.00,  982.3,    0.0, -999.0
10-03-2023, 00:18:32,      4,    0.0,    3.9,   0.00,   0.00,  982.3,    0.0, -999.0
10-03-2023, 00:18:42,      0,    0.0,    3.9,   0.00,   0.00,  982.3,    0.2, -999.0
10-03-2023, 00:18:52,      0,    0.0,    3.9,   0.00,   0.00,  982.3,    0.0, -999.0
10-03-2023, 00:19:02,      0,    0.0,    3.9,   0.00,   0.00,  982.3,    0.0, -999.0
10-03-2023, 00:19:12,      0,    0.0,    3.9,   0.00,   0.00,  982.3,    0.0, -999.0
10-03-2023, 00:19:22,      0,    0.0,    3.9,   0.00,   0.00,  982.3,    0.0, -999.0
10-03-2023, 00:19:32,      0,    0.0,    4.0,   0.00,   0.00,  982.3,    0.0, -999.0
10-03-2023, 00:19:41,      0,    0.0,    3.9,   0.00,   0.00,  982.3,    0.0, -999.0
10-03-2023, 00:19:52,      0,    0.0,    3.9,   0.00,   0.00,  982.3,    0.0, -999.0
10-03-2023, 00:20:02,      0,    0.0,    3.9,   0.00,   0.00,  982.3,    0.0, -999.0
10-03-2023, 00:20:11,      0,    0.0,    3.8,   0.00,   0.00,  982.3,    0.0, -999.0
10-03-2023, 00:20:21,      0,    0.0,    3.8,   0.00,   0.00,  982.3,    0.0, -999.0
10-03-2023, 00:20:32,      0,    0.0,    3.8,   0.00,   0.00,  982.3,    0.1, -999.0
10-03-2023, 00:20:42,      0,    0.0,    3.9,   0.00,   0.00,  982.3,    0.0, -999.0
10-03-2023, 00:20:51,      4,    0.0,    3.8,   0.00,   0.00,  982.3,    0.0, -999.0
10-03-2023, 00:21:01,      0,    0.0,    3.9,   0.00,   0.00,  982.3,    0.0, -999.0
10-03-2023, 00:21:12,      0,    0.0,    3.8,   0.00,   0.00,  982.3,    0.0, -999.0
10-03-2023, 00:21:21,      0,    0.0,    3.9,   0.00,   0.00,  982.3,    0.0, -999.0
10-03-2023, 00:21:31,      0,    0.0,    3.9,   0.00,   0.00,  982.3,    0.0, -999.0
10-03-2023, 00:21:42,      0,    0.0,    3.8,   0.00,   0.00,  982.3,    0.0, -999.0
10-03-2023, 00:21:51,      0,    0.0,    3.8,   0.00,   0.00,  982.3,    0.0, -999.0
10-03-2023, 00:22:01,      0,    0.0,    3.8,   0.00,   0.00,  982.3,    0.0, -999.0
10-03-2023, 00:22:11,      0,    0.0,    3.8,   0.00,   0.00,  982.3,    0.0, -999.0
10-03-2023, 00:22:22,      2,    0.7,    3.9,   0.00,   0.00,  982.5,    0.1, -999.0
10-03-2023, 00:22:31,      3,    0.8,    4.0,   0.00,   0.00,  982.4,    0.0, -999.0
10-03-2023, 00:22:41,      3,    0.1,    3.9,   0.00,   0.00,  982.4,    0.0, -999.0
10-03-2023, 00:22:51,      3,    0.0,    3.8,   0.00,   0.01,  982.3,    0.0, -999.0
10-03-2023, 00:23:01,      3,    0.0,    3.8,   0.00,   0.00,  982.3,    0.1, -999.0
10-03-2023, 00:23:11,      2,    0.0,    3.7,   0.00,   0.00,  982.3,    0.0, -999.0
10-03-2023, 00:23:21,      2,    0.0,    3.8,   0.00,   0.00,  982.4,    0.0, -999.0
10-03-2023, 00:23:31,      2,    0.2,    3.8,   0.00,   0.00,  982.4,    0.1, -999.0
10-03-2023, 00:23:41,      2,    0.0,    3.8,   0.00,   0.00,  982.3,    0.0, -999.0
10-03-2023, 00:23:51,      2,    0.0,    3.8,   0.00,   0.00,  982.4,    0.0, -999.0
10-03-2023, 00:24:01,      2,    0.0,    3.8,   0.00,   0.00,  982.3,    0.0, -999.0
10-03-2023, 00:24:11,      2,    0.0,    3.8,   0.00,   0.00,  982.3,    0.0, -999.0
10-03-2023, 00:24:21,      6,    0.4,    3.9,   0.00,   0.00,  982.5,    0.1, -999.0
10-03-2023, 00:24:31,      0,    0.3,    3.9,   0.00,   0.00,  982.4,    0.1, -999.0
10-03-2023, 00:24:41,      0,    0.2,    3.9,   0.00,   0.00,  982.4,    0.1, -999.0
10-03-2023, 00:24:51,      0,    0.0,    4.0,   0.00,   0.00,  982.3,    0.1, -999.0
10-03-2023, 00:25:01,      0,    0.0,    3.8,   0.00,   0.00,  982.4,    0.0, -999.0
10-03-2023, 00:25:12,      0,    0.0,    3.8,   0.00,   0.00,  982.3,    0.0, -999.0
10-03-2023, 00:25:21,      0,    0.0,    3.8,   0.00,   0.00,  982.4,    0.0, -999.0
10-03-2023, 00:25:31,      0,    0.0,    3.8,   0.00,   0.00,  982.3,    0.0, -999.0
10-03-2023, 00:25:41,      0,    0.0,    3.8,   0.00,   0.00,  982.3,    0.0, -999.0
10-03-2023, 00:25:51,      0,    0.0,    3.8,   0.00,   0.00,  982.3,    0.0, -999.0
10-03-2023, 00:26:01,      0,    0.3,    3.9,   0.00,   0.00,  982.4,    0.0, -999.0
10-03-2023, 00:26:11,    358,    0.1,    3.8,   0.00,   0.00,  982.4,    0.0, -999.0
10-03-2023, 00:26:21,    351,    0.9,    3.8,   0.00,   0.00,  982.4,    0.1, -999.0
10-03-2023, 00:26:31,    351,    0.0,    3.8,   0.00,   0.00,  982.3,    0.0, -999.0
10-03-2023, 00:26:41,      1,    1.4,    3.8,   0.00,   0.00,  982.4,    0.0, -999.0
10-03-2023, 00:26:51,      0,    0.2,    3.9,   0.00,   0.00,  982.4,    0.0, -999.0
10-03-2023, 00:27:01,      0,    0.0,    3.8,   0.00,   0.00,  982.3,    0.1, -999.0
10-03-2023, 00:27:11,    343,    0.4,    3.8,   0.00,   0.00,  982.4,    0.0, -999.0
10-03-2023, 00:27:21,      0,    1.1,    3.9,   0.00,   0.00,  982.5,    0.0, -999.0
10-03-2023, 00:27:31,      0,    0.1,    3.7,   0.00,   0.00,  982.4,    0.1, -999.0
10-03-2023, 00:27:41,      0,    0.0,    3.8,   0.00,   0.00,  982.3,    0.0, -999.0
10-03-2023, 00:27:51,      0,    0.0,    3.8,   0.00,   0.00,  982.3,    0.1, -999.0
10-03-2023, 00:28:00,      0,    0.0,    3.7,   0.00,   0.00,  982.4,    0.0, -999.0
10-03-2023, 00:28:11,      0,    0.2,    3.7,   0.00,   0.00,  982.4,    0.1, -999.0
10-03-2023, 00:28:21,      0,    0.1,    3.8,   0.00,   0.00,  982.4,    0.1, -999.0
10-03-2023, 00:28:31,      0,    0.0,    3.8,   0.00,   0.00,  982.3,    0.0, -999.0
10-03-2023, 00:28:40,      0,    0.0,    3.8,   0.00,   0.00,  982.3,    0.0, -999.0
10-03-2023, 00:28:51,      0,    0.0,    3.8,   0.00,   0.00,  982.3,    0.0, -999.0
10-03-2023, 00:29:01,      0,    0.0,    3.8,   0.00,   0.00,  982.3,    0.0, -999.0
10-03-2023, 00:29:10,      0,    0.0,    3.8,   0.00,   0.00,  982.3,    0.1, -999.0
10-03-2023, 00:29:20,      7,    0.0,    3.8,   0.00,   0.00,  982.3,    0.1, -999.0
10-03-2023, 00:29:31,      0,    0.0,    3.7,   0.00,   0.00,  982.3,    0.0, -999.0
10-03-2023, 00:29:41,      0,    0.0,    3.8,   0.00,   0.00,  982.3,    0.0, -999.0
10-03-2023, 00:29:50,      0,    0.0,    3.8,   0.00,   0.00,  982.3,    0.0, -999.0
10-03-2023, 00:30:00,      0,    0.0,    3.8,   0.00,   0.00,  982.3,    0.0, -999.0
10-03-2023, 00:30:11,      0,    0.0,    3.8,   0.00,   0.00,  982.3,    0.1, -999.0
10-03-2023, 00:30:20,      0,    0.0,    3.8,   0.00,   0.00,  982.3,    0.0, -999.0
10-03-2023, 00:30:30,      0,    0.0,    3.6,   0.00,   0.00,  982.3,    0.0, -999.0
10-03-2023, 00:30:41,      0,    0.0,    3.7,   0.00,   0.00,  982.3,    0.0, -999.0
10-03-2023, 00:30:50,      0,    0.3,    3.9,   0.00,   0.00,  982.4,    0.0, -999.0
10-03-2023, 00:31:00,      0,    0.2,    3.8,   0.00,   0.00,  982.4,    0.0, -999.0
10-03-2023, 00:31:10,      0,    0.0,    3.8,   0.00,   0.00,  982.3,    0.1, -999.0
10-03-2023, 00:31:21,      0,    0.0,    3.7,   0.00,   0.00,  982.3,    0.1, -999.0
10-03-2023, 00:31:30,      0,    0.0,    3.7,   0.00,   0.00,  982.3,    0.0, -999.0
10-03-2023, 00:31:40,      0,    0.0,    3.8,   0.00,   0.00,  982.3,    0.0, -999.0
10-03-2023, 00:31:50,      0,    0.0,    3.8,   0.00,   0.00,  982.3,    0.0, -999.0
10-03-2023, 00:32:00,      0,    0.0,    3.8,   0.00,   0.00,  982.3,    0.0, -999.0
10-03-2023, 00:32:10,      0,    0.0,    3.8,   0.00,   0.00,  982.3,    0.0, -999.0
10-03-2023, 00:32:20,      0,    0.0,    3.8,   0.00,   0.00,  982.3,    0.0, -999.0
10-03-2023, 00:32:30,      0,    0.0,    3.7,   0.00,   0.00,  982.3,    0.0, -999.0
10-03-2023, 00:32:40,      0,    0.0,    3.7,   0.00,   0.00,  982.3,    0.0, -999.0
10-03-2023, 00:32:50,      0,    0.0,    3.7,   0.00,   0.00,  982.3,    0.0, -999.0
10-03-2023, 00:33:00,      0,    0.0,    3.8,   0.00,   0.00,  982.3,    0.0, -999.0
10-03-2023, 00:33:10,      0,    0.0,    3.8,   0.00,   0.00,  982.3,    0.0, -999.0
10-03-2023, 00:33:20,      0,    0.0,    3.7,   0.00,   0.00,  982.3,    0.0, -999.0
10-03-2023, 00:33:30,      0,    0.0,    3.7,   0.00,   0.00,  982.3,    0.0, -999.0
10-03-2023, 00:33:40,      0,    0.0,    3.7,   0.00,   0.00,  982.3,    0.0, -999.0
10-03-2023, 00:33:50,      0,    0.0,    3.7,   0.00,   0.00,  982.3,    0.0, -999.0
10-03-2023, 00:34:00,      0,    0.0,    3.7,   0.00,   0.00,  982.3,    0.0, -999.0
10-03-2023, 00:34:10,      0,    0.0,    3.6,   0.00,   0.00,  982.3,    0.0, -999.0
10-03-2023, 00:34:20,      0,    0.0,    3.7,   0.00,   0.00,  982.3,    0.1, -999.0
10-03-2023, 00:34:30,      9,    0.7,    3.7,   0.00,   0.00,  982.4,    0.0, -999.0
10-03-2023, 00:34:40,     16,    1.1,    3.8,   0.00,   0.00,  982.4,    0.0, -999.0
10-03-2023, 00:34:50,     17,    0.6,    3.7,   0.00,   0.00,  982.4,    0.1, -999.0
10-03-2023, 00:35:00,     16,    0.3,    3.7,   0.00,   0.00,  982.4,    0.1, -999.0
10-03-2023, 00:35:10,      0,    0.0,    3.6,   0.00,   0.00,  982.3,    0.1, -999.0
10-03-2023, 00:35:20,      0,    0.3,    3.7,   0.00,   0.00,  982.4,    0.0, -999.0
10-03-2023, 00:35:30,      1,    0.7,    3.8,   0.00,   0.00,  982.4,    0.1, -999.0
10-03-2023, 00:35:40,      0,    0.8,    3.8,   0.00,   0.00,  982.4,    0.1, -999.0
10-03-2023, 00:35:50,    336,    0.5,    3.8,   0.00,   0.00,  982.4,    0.0, -999.0
10-03-2023, 00:36:00,    333,    0.3,    3.7,   0.00,   0.00,  982.4,    0.0, -999.0
10-03-2023, 00:36:10,    336,    0.5,    3.7,   0.00,   0.00,  982.4,    0.1, -999.0
10-03-2023, 00:36:20,    349,    0.2,    3.8,   0.00,   0.00,  982.4,    0.0, -999.0
10-03-2023, 00:36:30,    348,    0.0,    3.7,   0.00,   0.00,  982.3,    0.0, -999.0
10-03-2023, 00:36:40,      0,    0.0,    3.7,   0.00,   0.00,  982.3,    0.1, -999.0
10-03-2023, 00:36:50,      0,    0.0,    3.7,   0.00,   0.00,  982.3,    0.1, -999.0
10-03-2023, 00:36:59,      1,    0.0,    3.7,   0.00,   0.00,  982.3,    0.0, -999.0
10-03-2023, 00:37:10,      0,    0.0,    3.7,   0.00,   0.00,  982.3,    0.0, -999.0
10-03-2023, 00:37:20,      0,    0.0,    3.7,   0.00,   0.00,  982.3,    0.0, -999.0
10-03-2023, 00:37:30,      4,    0.0,    3.7,   0.00,   0.00,  982.3,    0.0, -999.0
10-03-2023, 00:37:39,     32,    0.0,    3.7,   0.00,   0.00,  982.2,    0.0, -999.0
10-03-2023, 00:37:50,     31,    0.0,    3.7,   0.00,   0.00,  982.3,    0.0, -999.0
10-03-2023, 00:38:00,     30,    0.0,    3.7,   0.00,   0.00,  982.3,    0.0, -999.0
10-03-2023, 00:38:09,      0,    1.5,    3.7,   0.00,   0.00,  982.4,    0.0, -999.0
10-03-2023, 00:38:19,      0,    0.1,    3.7,   0.00,   0.00,  982.3,    0.1, -999.0
10-03-2023, 00:38:30,      3,    0.5,    3.7,   0.00,   0.00,  982.4,    0.1, -999.0
10-03-2023, 00:38:40,      4,    0.0,    3.7,   0.00,   0.00,  982.3,    0.0, -999.0
10-03-2023, 00:38:49,      4,    0.0,    3.7,   0.00,   0.00,  982.3,    0.0, -999.0
10-03-2023, 00:38:59,      4,    0.0,    3.8,   0.00,   0.00,  982.2,    0.0, -999.0
10-03-2023, 00:39:10,      4,    0.0,    3.7,   0.00,   0.00,  982.3,    0.0, -999.0
10-03-2023, 00:39:19,      4,    0.0,    3.8,   0.00,   0.00,  982.3,    0.0, -999.0
10-03-2023, 00:39:29,     10,    0.0,    3.8,   0.00,   0.00,  982.3,    0.1, -999.0
10-03-2023, 00:39:40,      9,    0.0,    3.7,   0.00,   0.00,  982.3,    0.0, -999.0
10-03-2023, 00:39:50,      9,    0.2,    3.8,   0.00,   0.00,  982.4,    0.0, -999.0
10-03-2023, 00:39:59,      9,    0.5,    3.8,   0.00,   0.00,  982.4,    0.0, -999.0
10-03-2023, 00:40:09,    344,    0.4,    3.7,   0.00,   0.00,  982.4,    0.1, -999.0
10-03-2023, 00:40:20,    344,    0.1,    3.6,   0.00,   0.00,  982.3,    0.1, -999.0
10-03-2023, 00:40:29,    344,    0.0,    3.6,   0.00,   0.00,  982.3,    0.0, -999.0
10-03-2023, 00:40:39,    344,    0.0,    3.6,   0.00,   0.00,  982.3,    0.0, -999.0
10-03-2023, 00:40:49,    344,    0.0,    3.5,   0.00,   0.00,  982.3,    0.0, -999.0
10-03-2023, 00:40:59,    343,    0.0,    3.6,   0.00,   0.00,  982.3,    0.0, -999.0
10-03-2023, 00:41:09,    316,    0.4,    3.5,   0.00,   0.00,  982.3,    0.0, -999.0
10-03-2023, 00:41:19,    348,    0.0,    3.5,   0.00,   0.00,  982.3,    0.0, -999.0
10-03-2023, 00:41:29,    349,    0.2,    3.7,   0.00,   0.00,  982.4,    0.0, -999.0
10-03-2023, 00:41:39,     62,    0.3,    3.6,   0.00,   0.00,  982.4,    0.1, -999.0
10-03-2023, 00:41:49,     17,    0.9,    3.7,   0.00,   0.00,  982.4,    0.0, -999.0
10-03-2023, 00:41:59,     16,    0.0,    3.6,   0.00,   0.00,  982.3,    0.0, -999.0
10-03-2023, 00:42:09,     16,    0.0,    3.6,   0.00,   0.00,  982.3,    0.0, -999.0
10-03-2023, 00:42:19,     16,    0.0,    3.6,   0.00,   0.00,  982.3,    0.1, -999.0
10-03-2023, 00:42:29,      0,    0.1,    3.6,   0.00,   0.00,  982.3,    0.1, -999.0
10-03-2023, 00:42:39,      0,    0.3,    3.7,   0.00,   0.00,  982.4,    0.0, -999.0
10-03-2023, 00:42:49,      0,    0.2,    3.5,   0.00,   0.00,  982.4,    0.0, -999.0
10-03-2023, 00:42:59,      0,    0.1,    3.6,   0.00,   0.00,  982.3,    0.1, -999.0
10-03-2023, 00:43:09,      0,    0.0,    3.6,   0.00,   0.00,  982.3,    0.0, -999.0
10-03-2023, 00:43:19,      0,    0.0,    3.5,   0.00,   0.00,  982.2,    0.0, -999.0
10-03-2023, 00:43:29,      7,    0.0,    3.6,   0.00,   0.00,  982.3,    0.0, -999.0
10-03-2023, 00:43:39,      0,    0.0,    3.6,   0.00,   0.00,  982.3,    0.0, -999.0
10-03-2023, 00:43:49,      0,    0.0,    3.6,   0.00,   0.00,  982.3,    0.0, -999.0
10-03-2023, 00:43:59,      1,    0.0,    3.7,   0.00,   0.00,  982.3,    0.0, -999.0
10-03-2023, 00:44:09,      0,    0.0,    3.6,   0.00,   0.00,  982.3,    0.0, -999.0
10-03-2023, 00:44:19,      1,    0.0,    3.7,   0.00,   0.00,  982.3,    0.0, -999.0
10-03-2023, 00:44:29,      0,    0.0,    3.6,   0.00,   0.00,  982.3,    0.0, -999.0
10-03-2023, 00:44:39,      0,    0.0,    3.5,   0.00,   0.00,  982.3,    0.0, -999.0
10-03-2023, 00:44:49,      0,    0.0,    3.6,   0.00,   0.00,  982.3,    0.1, -999.0
10-03-2023, 00:44:59,    316,    1.7,    3.6,   0.00,   0.00,  982.4,    0.2, -999.0
10-03-2023, 00:45:09,     29,    1.5,    3.7,   0.00,   0.00,  982.4,    0.2, -999.0
10-03-2023, 00:45:19,    325,    0.8,    3.6,   0.00,   0.00,  982.4,    0.0, -999.0
10-03-2023, 00:45:29,    325,    0.1,    3.5,   0.00,   0.00,  982.3,    0.0, -999.0
10-03-2023, 00:45:39,    329,    0.0,    3.5,   0.00,   0.00,  982.3,    0.0, -999.0
10-03-2023, 00:45:49,    350,    0.2,    3.5,   0.00,   0.00,  982.3,    0.1, -999.0
10-03-2023, 00:45:59,    350,    0.0,    3.5,   0.00,   0.00,  982.3,    0.0, -999.0
10-03-2023, 00:46:10,    353,    0.0,    3.6,   0.00,   0.00,  982.3,    0.0, -999.0
10-03-2023, 00:46:19,    353,    0.0,    3.5,   0.00,   0.00,  982.3,    0.0, -999.0
10-03-2023, 00:46:29,    353,    0.0,    3.6,   0.00,   0.00,  982.3,    0.0, -999.0
10-03-2023, 00:46:38,      8,    0.0,    3.6,   0.00,   0.00,  982.3,    0.0, -999.0
10-03-2023, 00:46:49,      9,    0.3,    3.7,   0.00,   0.00,  982.4,    0.1, -999.0